Wind_Speed
34 33 33 29 31 32 32 32 33 33 33 33 33 34 35 35 35 34 32 29 29 28 25 23 21 19 15 13 14 13 15 14 14 13 12 11 9 10 9 10 9 10 13 13 12
37 35 33 32 32 30 31 32 31 32 32 33 32 32 31 32 33 32 29 29 29 28 26 24 22 20 17 17 16 15 19 16 15 15 17 19 18 17 15 12 13 12 12 13 14
38 36 36 35 33 32 31 31 31 32 31 31 31 31 31 31 31 30 30 28 27 28 27 25 23 21 21 20 20 21 23 18 19 19 20 20 21 22 21 19 16 19 18 17 14
40 37 37 37 36 33 32 31 31 30 30 30 30 30 30 31 22 26 28 28 26 26 26 26 25 22 22 22 20 23 24 23 23 22 24 25 26 27 25 23 21 19 20 19 19
39 37 36 37 35 34 32 32 30 29 28 28 30 31 31 32 30 26 16 12 17 25 25 26 25 22 22 21 22 25 24 23 23 24 25 26 28 29 30 26 25 25 26 25 21
36 37 36 37 35 33 32 32 29 28 26 26 28 29 32 35 25 29 27 25 18 11 20 23 21 22 22 23 24 25 24 24 25 24 28 31 31 32 28 26 28 28 26 24 24
33 33 32 34 37 34 33 32 29 28 25 23 24 28 33 29 25 26 27 26 22 19 17 14 23 24 25 24 26 24 25 25 26 25 28 28 33 32 28 28 28 27 24 23 23
34 34 32 32 33 34 32 32 30 29 27 22 21 28 35 21 29 32 25 22 22 19 17 19 21 23 20 20 20 20 23 25 25 24 23 26 42 31 25 28 28 26 26 26 23
32 30 33 32 31 30 31 31 30 31 30 26 28 30 30 29 28 24 26 22 22 24 21 21 21 21 21 21 23 22 24 22 22 21 22 26 39 31 23 22 22 22 23 25 24
32 30 30 29 27 29 29 28 30 32 30 27 30 27 32 12 22 23 21 23 26 26 25 23 26 26 27 25 25 18 25 25 21 21 22 29 38 32 28 29 29 26 26 27 26
42 38 30 30 27 23 26 28 32 34 35 39 35 39 16 6 30 22 25 26 26 24 25 25 27 36 32 30 29 27 27 26 22 17 25 29 37 34 31 33 33 34 36 35 30
39 39 35 33 33 26 29 35 31 31 35 38 42 32 33 22 13 26 22 28 28 28 25 26 33 28 21 23 26 27 27 26 27 26 29 34 44 39 36 35 33 32 32 35 33
33 33 34 33 32 33 33 33 31 31 24 33 42 43 34 32 33 22 21 25 28 33 32 32 21 25 33 31 30 30 29 27 29 26 28 34 51 44 40 39 36 38 37 38 39
33 34 36 33 37 39 36 32 29 27 18 28 38 49 44 33 36 34 31 21 28 35 35 35 37 32 22 24 32 34 30 28 27 27 25 21 24 41 41 41 38 38 38 37 35
37 33 39 42 42 42 34 29 27 20 4 16 33 40 42 50 32 30 25 28 30 28 30 33 31 37 38 34 21 26 23 19 13 17 24 29 16 43 35 38 36 36 28 26 26
39 40 40 42 43 38 29 27 31 18 10 16 21 37 44 44 49 30 33 35 32 29 31 34 27 26 29 36 32 20 16 17 16 17 14 23 18 37 35 35 33 12 19 15 9
44 42 42 44 43 40 32 36 33 21 16 19 29 31 37 46 45 34 33 39 39 31 38 32 34 33 27 21 28 29 19 4 5 7 8 13 15 34 33 38 29 28 26 15 12
48 46 44 44 39 38 36 40 21 28 38 18 28 29 35 35 45 46 38 40 40 37 21 29 20 36 36 45 31 28 32 16 4 4 5 18 13 26 34 32 18 14 14 18 22
49 47 49 47 45 40 41 43 40 34 53 25 15 26 32 37 27 36 47 48 49 47 31 21 23 26 24 29 34 31 33 35 30 26 11 18 31 41 34 26 23 18 24 28 28
46 47 50 46 46 42 45 47 39 35 31 48 27 27 28 37 32 27 36 43 48 49 46 27 11 24 27 21 25 30 22 15 22 6 7 6 15 24 14 20 20 19 20 27 27
41 43 47 43 41 46 51 45 44 45 30 36 42 30 28 37 39 34 26 30 39 44 47 39 21 15 23 33 33 34 34 20 17 16 2 3 10 21 10 12 13 18 23 26 28
45 45 43 43 49 52 49 48 48 49 48 30 34 42 36 28 38 37 38 32 31 31 48 49 26 26 31 27 30 37 41 39 19 10 16 19 30 16 21 17 20 15 22 23 23
47 43 36 46 51 39 47 31 44 44 45 45 40 39 35 36 38 42 45 40 37 27 41 43 35 22 20 31 31 35 36 35 38 27 27 9 14 14 11 12 14 16 22 20 24
47 32 37 48 53 33 36 52 34 43 35 48 48 36 40 40 36 22 38 42 41 37 32 39 42 33 28 12 33 34 39 39 38 26 36 39 36 23 15 19 20 21 27 29 31
47 30 40 44 48 38 28 43 45 33 45 38 40 40 44 32 36 34 31 26 37 36 37 39 35 42 49 40 34 30 34 40 43 47 27 36 35 32 23 18 23 31 31 33 28
31 35 35 33 42 45 30 15 47 46 33 31 40 42 41 41 43 35 35 38 36 31 34 40 37 44 47 47 34 30 26 31 37 39 46 43 38 25 28 25 30 37 36 35 34
44 28 30 28 36 41 48 38 40 23 37 27 34 40 39 39 45 42 40 36 43 37 42 40 36 16 39 42 38 30 51 41 38 35 36 38 40 39 28 25 32 34 36 37 36
Wind_Direction
233 233 236 232 236 240 240 240 242 244 244 244 244 244 246 247 246 246 247 249 250 250 250 251 251 249 246 248 245 250 246 244 230 233 223 233 242 257 273 292 295 311 306 301 297
231 232 235 236 235 236 239 240 240 243 244 245 245 246 247 249 250 249 250 248 246 247 248 247 247 250 249 246 244 241 247 250 244 240 239 236 246 253 262 264 279 297 306 300 299
235 235 235 235 236 236 236 239 237 239 241 243 245 245 247 248 252 252 249 246 242 241 242 245 243 243 244 244 246 247 247 248 250 248 248 250 253 260 265 270 277 285 287 285 288
237 232 234 235 236 235 237 237 239 237 239 241 243 244 245 245 246 251 248 246 241 240 240 241 241 238 242 240 241 249 249 248 250 252 254 256 257 260 262 274 281 285 283 281 278
239 234 232 233 233 233 232 236 237 238 237 239 241 243 243 243 238 241 244 245 240 236 236 237 240 239 239 241 239 244 249 250 252 253 256 258 259 265 264 267 273 279 280 282 280
235 233 230 233 231 233 232 232 234 237 238 240 240 241 243 243 239 242 245 246 242 226 231 238 244 244 244 242 242 246 251 255 256 256 261 263 265 265 270 271 271 276 279 278 278
230 233 229 226 230 227 230 231 231 231 234 237 244 242 243 241 239 239 239 244 249 246 240 229 230 237 243 244 249 251 256 255 255 258 261 271 267 266 276 274 272 273 277 278 277
225 225 229 227 226 229 226 231 231 229 227 229 231 244 248 241 237 237 232 232 236 241 236 235 231 227 235 243 253 257 260 260 257 259 266 270 273 275 280 278 273 272 273 276 274
223 218 219 221 226 224 225 223 226 227 224 224 233 242 254 242 239 246 240 230 229 231 230 230 225 229 235 239 249 250 253 258 263 261 264 259 272 278 275 276 279 275 271 269 271
220 214 217 218 224 227 224 223 221 225 217 219 229 240 247 243 237 242 237 229 224 228 226 226 227 228 229 226 231 242 250 262 267 267 266 265 266 273 278 276 277 274 271 270 272
227 222 213 215 212 219 216 213 218 219 213 213 223 227 213 241 229 220 218 221 221 216 223 224 226 226 228 228 237 241 249 259 261 271 277 274 273 274 274 269 267 270 277 280 278
223 221 215 213 212 212 219 219 219 229 226 220 221 227 230 220 191 216 219 215 217 218 215 221 231 232 233 235 241 243 249 258 273 267 270 278 276 276 273 274 273 278 279 280 280
218 211 218 218 212 215 221 223 219 223 227 226 228 226 233 232 228 218 217 221 217 220 220 224 231 244 241 237 237 243 249 258 269 282 272 281 278 279 280 276 280 279 279 279 280
213 217 202 209 214 216 219 215 219 223 233 242 227 231 224 227 240 231 227 228 221 225 225 235 235 238 242 250 242 251 255 263 269 278 278 281 290 280 282 285 283 285 282 284 287
205 212 202 211 217 216 218 207 207 203 234 238 227 230 229 225 231 216 212 221 226 225 216 228 241 236 240 242 245 248 263 266 268 271 282 273 266 280 293 293 295 299 304 289 275
206 209 206 214 219 220 209 200 195 194 221 211 212 218 219 221 225 227 218 220 231 225 231 238 242 238 243 248 240 242 239 252 267 260 254 264 251 278 288 299 303 309 332 322 270
206 208 208 212 218 213 204 196 197 213 218 218 210 210 216 217 213 210 205 207 214 210 226 233 237 236 235 228 234 239 250 245 224 221 256 274 252 263 289 295 287 293 286 252 259
207 208 211 215 212 211 202 192 208 216 207 223 211 212 203 208 219 213 214 213 215 217 224 217 233 233 236 237 238 239 241 225 215 208 256 262 242 273 290 288 284 293 267 240 255
211 212 215 217 216 208 201 198 207 209 212 216 182 196 204 207 215 206 216 222 220 217 214 216 229 230 236 243 234 229 227 242 245 261 274 264 268 272 274 285 271 261 264 248 252
212 212 215 213 216 213 209 208 214 209 215 217 211 206 204 209 204 207 208 224 225 226 224 222 234 239 234 228 226 223 237 215 215 234 235 241 265 258 259 283 282 259 251 242 244
207 206 212 210 204 207 211 213 212 215 215 216 218 222 221 210 212 210 211 220 224 223 225 218 219 228 215 220 210 210 222 219 228 234 214 229 252 282 282 274 267 236 229 226 225
202 203 207 202 201 207 210 214 218 217 214 219 221 227 227 211 216 213 221 224 230 227 218 218 230 231 225 235 235 236 242 224 221 217 229 251 265 256 273 280 275 229 217 216 225
198 198 203 202 202 208 210 215 216 218 219 220 225 222 222 229 226 225 229 231 230 222 215 215 222 228 244 239 233 223 226 232 231 234 232 219 251 231 234 245 224 242 227 232 234
194 188 191 195 203 204 210 214 200 209 216 218 220 216 221 228 230 230 233 236 234 230 223 222 219 219 221 222 219 219 226 227 223 228 240 235 243 239 244 246 244 244 227 220 230
195 189 196 199 205 210 210 220 220 214 220 225 221 229 228 224 224 229 231 239 232 225 232 229 227 229 233 243 247 247 244 235 219 228 222 248 242 230 245 248 249 261 255 231 219
179 193 187 202 209 210 219 204 214 218 217 223 225 232 238 238 238 237 238 240 242 237 224 222 231 232 227 228 235 238 239 238 239 241 233 240 248 247 228 262 243 250 243 222 221
198 191 201 201 209 205 216 224 228 213 216 234 232 227 231 241 243 246 250 254 243 245 245 243 259 243 220 228 233 238 240 234 239 239 241 229 250 247 247 242 237 243 244 235 246
Height
3099 3102 3106 3108 3113 3116 3119 3122 3125 3129 3132 3135 3138 3141 3143 3146 3147 3150 3154 3159 3161 3163 3164 3166 3168 3170 3173 3174 3175 3177 3178 3177 3178 3179 3181 3181 3181 3181 3182 3182 3182 3182 3181 3181 3180
3093 3095 3098 3103 3106 3110 3114 3117 3120 3123 3126 3130 3133 3136 3139 3141 3143 3146 3151 3153 3157 3158 3159 3162 3164 3166 3169 3171 3173 3174 3175 3176 3177 3177 3177 3178 3178 3178 3180 3180 3181 3181 3181 3179 3178
3085 3089 3093 3096 3100 3104 3107 3112 3115 3117 3121 3125 3128 3130 3134 3136 3140 3143 3143 3148 3151 3153 3155 3158 3161 3163 3166 3167 3169 3169 3171 3174 3174 3174 3174 3176 3176 3175 3176 3177 3178 3178 3178 3177 3176
3079 3082 3086 3090 3093 3097 3102 3105 3110 3112 3116 3119 3122 3125 3128 3132 3138 3136 3139 3142 3145 3148 3151 3154 3157 3160 3161 3163 3165 3166 3167 3169 3171 3171 3171 3172 3172 3172 3173 3175 3175 3175 3174 3174 3174
3071 3074 3078 3083 3086 3091 3095 3100 3104 3107 3110 3113 3116 3119 3121 3124 3130 3133 3135 3137 3140 3143 3146 3149 3153 3155 3157 3159 3160 3161 3163 3164 3166 3167 3168 3168 3168 3167 3169 3172 3172 3171 3170 3170 3170
3064 3067 3071 3076 3080 3084 3089 3093 3098 3103 3105 3108 3110 3113 3115 3117 3127 3127 3132 3134 3137 3140 3142 3146 3150 3151 3152 3154 3155 3156 3158 3161 3162 3164 3163 3162 3162 3163 3166 3168 3167 3167 3167 3166 3166
3055 3061 3065 3069 3074 3077 3083 3087 3091 3096 3101 3104 3105 3106 3106 3115 3121 3120 3126 3129 3134 3138 3141 3142 3144 3147 3147 3149 3150 3152 3154 3155 3157 3160 3158 3159 3155 3157 3161 3162 3162 3162 3162 3162 3162
3048 3054 3059 3063 3067 3072 3075 3081 3085 3090 3095 3099 3101 3100 3099 3112 3111 3113 3121 3127 3130 3133 3136 3139 3139 3142 3144 3147 3148 3149 3149 3150 3154 3155 3157 3156 3144 3154 3158 3156 3156 3157 3157 3156 3157
3042 3048 3053 3058 3062 3066 3071 3075 3080 3085 3090 3094 3096 3097 3098 3101 3106 3113 3117 3123 3126 3128 3132 3134 3135 3138 3141 3143 3145 3145 3145 3146 3149 3151 3152 3152 3141 3148 3151 3149 3150 3151 3151 3152 3152
3035 3041 3047 3050 3055 3060 3065 3068 3073 3079 3083 3088 3092 3096 3090 3099 3104 3107 3112 3117 3121 3124 3128 3130 3131 3132 3135 3138 3136 3141 3142 3144 3145 3148 3147 3144 3136 3141 3146 3145 3144 3145 3146 3146 3147
3027 3034 3040 3045 3051 3055 3059 3062 3068 3072 3073 3078 3080 3085 3088 3091 3098 3100 3104 3110 3113 3119 3121 3124 3126 3122 3129 3132 3135 3138 3140 3142 3143 3145 3142 3139 3132 3135 3138 3138 3140 3140 3141 3140 3140
3019 3026 3033 3038 3045 3050 3052 3055 3061 3067 3070 3074 3077 3081 3084 3090 3095 3096 3101 3105 3109 3112 3116 3120 3117 3123 3126 3130 3132 3133 3135 3138 3139 3142 3141 3135 3123 3127 3130 3131 3133 3134 3133 3132 3132
3013 3020 3026 3033 3039 3042 3046 3052 3058 3061 3066 3069 3072 3076 3080 3084 3089 3094 3097 3099 3104 3108 3111 3113 3116 3118 3121 3124 3127 3128 3131 3135 3136 3136 3135 3132 3112 3119 3122 3123 3126 3126 3126 3124 3124
3006 3014 3021 3027 3031 3034 3039 3048 3054 3060 3066 3062 3063 3063 3073 3077 3080 3088 3092 3099 3100 3103 3109 3110 3112 3113 3116 3118 3125 3124 3129 3132 3133 3134 3129 3130 3111 3110 3113 3114 3118 3118 3118 3117 3119
2998 3006 3014 3017 3020 3026 3037 3044 3052 3060 3062 3054 3052 3057 3065 3069 3072 3078 3088 3092 3093 3097 3103 3100 3102 3107 3109 3113 3121 3121 3125 3128 3128 3128 3125 3123 3126 3095 3106 3107 3110 3111 3110 3108 3108
2991 2999 3007 3009 3014 3023 3035 3041 3049 3051 3044 3041 3041 3042 3053 3058 3067 3076 3082 3086 3090 3094 3095 3097 3098 3103 3104 3109 3116 3120 3122 3123 3123 3124 3119 3116 3122 3098 3102 3104 3103 3107 3106 3104 3102
2982 2991 2998 3003 3007 3017 3027 3033 3040 3034 3034 3033 3032 3037 3044 3051 3061 3067 3072 3075 3078 3086 3084 3091 3093 3096 3101 3105 3109 3112 3117 3117 3118 3116 3110 3109 3111 3096 3100 3100 3102 3102 3102 3102 3101
2975 2983 2988 2995 3003 3012 3019 3023 3020 3020 3024 3024 3026 3035 3040 3047 3050 3058 3065 3067 3070 3076 3080 3084 3088 3088 3090 3095 3103 3107 3112 3112 3111 3111 3106 3104 3097 3091 3097 3097 3098 3100 3097 3095 3094
2967 2973 2979 2986 2994 3004 3008 3005 3004 3008 3018 3021 3025 3030 3036 3040 3047 3054 3055 3058 3063 3066 3075 3078 3079 3081 3083 3088 3097 3098 3101 3105 3107 3105 3106 3100 3092 3089 3093 3092 3092 3093 3092 3091 3090
2955 2963 2968 2978 2987 2995 2996 2994 2997 3006 3011 3017 3019 3024 3027 3032 3041 3046 3050 3047 3054 3060 3068 3072 3074 3074 3081 3085 3088 3091 3096 3100 3102 3101 3098 3092 3090 3084 3087 3087 3086 3086 3086 3085 3086
2947 2952 2959 2971 2981 2983 2979 2985 2992 3001 3008 3012 3016 3020 3023 3027 3033 3037 3038 3043 3046 3053 3063 3068 3069 3071 3074 3070 3077 3084 3086 3090 3093 3093 3090 3093 3083 3082 3082 3082 3079 3078 3077 3079 3081
2937 2943 2953 2963 2968 2969 2974 2981 2988 2995 3003 3007 3011 3016 3018 3024 3027 3033 3034 3037 3042 3048 3051 3060 3064 3065 3064 3066 3071 3075 3075 3081 3084 3086 3085 3084 3076 3079 3077 3079 3075 3074 3076 3078 3080
2930 2938 2946 2955 2956 2961 2969 2974 2983 2990 2995 3001 3005 3010 3015 3019 3025 3027 3029 3035 3040 3042 3044 3052 3054 3059 3060 3062 3062 3064 3069 3073 3076 3079 3075 3080 3071 3075 3074 3074 3071 3071 3072 3074 3078
2926 2931 2940 2944 2953 2958 2964 2971 2975 2983 2989 2994 3000 3006 3010 3014 3018 3019 3023 3029 3033 3037 3043 3045 3045 3043 3045 3047 3052 3056 3058 3063 3068 3069 3064 3064 3067 3071 3070 3069 3070 3069 3068 3067 3068
2919 2926 2932 2937 2946 2954 2961 2966 2971 2976 2983 2990 2994 2998 3003 3007 3011 3013 3020 3024 3027 3031 3037 3039 3033 3040 3041 3044 3046 3046 3048 3052 3054 3052 3060 3056 3058 3065 3065 3066 3066 3066 3064 3063 3063
2914 2923 2929 2938 2946 2953 2957 2960 2964 2972 2979 2984 2988 2994 2997 3000 3004 3009 3016 3019 3021 3025 3028 3031 3029 3030 3030 3036 3037 3039 3041 3042 3044 3047 3050 3050 3050 3056 3055 3059 3060 3059 3059 3058 3058
2914 2922 2930 2935 2942 2948 2952 2957 2964 2972 2976 2981 2986 2989 2990 2992 3001 3006 3012 3015 3016 3019 3020 3023 3020 3017 3018 3025 3030 3031 3025 3032 3035 3038 3040 3041 3040 3047 3050 3051 3053 3053 3054 3054 3052